Time,TemperatureF,DewpointF,PressureIn,WindDirection,WindDirectionDegrees,WindSpeedMPH,WindSpeedGustMPH,Humidity,HourlyPrecipIn,Conditions,Clouds,dailyrainin,SoftwareType,DateUTC
2013-03-10 00:00:00,21.3,18.3,30.42,East,94,0.0,0.0,88,0.00,,,0.00,Wunderground v.1.15,2013-03-10 05:00:00,
2013-03-10 00:10:00,21.2,18.2,30.42,East,94,0.0,0.0,88,0.00,,,0.00,Wunderground v.1.15,2013-03-10 05:10:00,
2013-03-10 00:20:00,21.2,18.5,30.43,East,94,0.0,0.0,89,0.00,,,0.00,Wunderground v.1.15,2013-03-10 05:20:00,
2013-03-10 00:30:00,21.1,18.4,30.43,East,94,0.0,0.0,89,0.00,,,0.00,Wunderground v.1.15,2013-03-10 05:30:00,
2013-03-10 00:40:00,20.7,18.0,30.42,East,94,0.0,0.0,89,0.00,,,0.00,Wunderground v.1.15,2013-03-10 05:40:00,
2013-03-10 00:50:00,20.5,18.0,30.42,East,94,0.0,0.0,90,0.00,,,0.00,Wunderground v.1.15,2013-03-10 05:50:00,
2013-03-10 01:00:00,20.4,17.9,30.42,East,94,0.0,0.0,90,0.00,,,0.00,Wunderground v.1.15,2013-03-10 06:00:00,
2013-03-10 01:10:00,20.3,18.1,30.43,East,94,0.0,0.0,91,0.00,,,0.00,Wunderground v.1.15,2013-03-10 06:10:00,
2013-03-10 01:20:00,19.9,17.4,30.43,East,94,0.0,0.0,90,0.00,,,0.00,Wunderground v.1.15,2013-03-10 06:20:00,
2013-03-10 01:30:00,19.7,17.5,30.42,East,94,0.0,0.0,91,0.00,,,0.00,Wunderground v.1.15,2013-03-10 06:30:00,
2013-03-10 01:40:00,19.1,16.7,30.42,East,94,0.0,0.0,90,0.00,,,0.00,Wunderground v.1.15,2013-03-10 06:40:00,
2013-03-10 01:50:00,18.8,16.6,30.41,East,94,0.0,0.0,91,0.00,,,0.00,Wunderground v.1.15,2013-03-10 06:50:00,
2013-03-10 03:00:00,18.9,17.0,30.42,East,94,0.0,0.0,92,0.00,,,0.00,Wunderground v.1.15,2013-03-10 07:00:00,
2013-03-10 03:10:00,19.2,17.3,30.42,East,94,0.0,0.0,92,0.00,,,0.00,Wunderground v.1.15,2013-03-10 07:10:00,
2013-03-10 03:20:00,19.2,17.3,30.42,East,94,0.0,0.0,92,0.00,,,0.00,Wunderground v.1.15,2013-03-10 07:20:00,
2013-03-10 03:30:00,19.2,17.3,30.42,East,94,0.0,0.0,92,0.00,,,0.00,Wunderground v.1.15,2013-03-10 07:30:00,
2013-03-10 03:40:00,19.4,17.7,30.41,East,94,0.0,0.0,93,0.00,,,0.00,Wunderground v.1.15,2013-03-10 07:40:00,
2013-03-10 03:50:00,19.0,17.1,30.41,East,94,0.0,0.0,92,0.00,,,0.00,Wunderground v.1.15,2013-03-10 07:50:00,
2013-03-10 04:00:00,18.5,16.6,30.40,East,94,0.0,0.0,92,0.00,,,0.00,Wunderground v.1.15,2013-03-10 08:00:00,
2013-03-10 04:10:00,18.4,16.5,30.40,East,94,0.0,0.0,92,0.00,,,0.00,Wunderground v.1.15,2013-03-10 08:10:00,
2013-03-10 04:20:00,18.4,16.5,30.41,East,94,0.0,0.0,92,0.00,,,0.00,Wunderground v.1.15,2013-03-10 08:20:00,
2013-03-10 04:30:00,18.7,17.0,30.41,East,94,0.0,0.0,93,0.00,,,0.00,Wunderground v.1.15,2013-03-10 08:30:00,
2013-03-10 04:40:00,19.1,17.4,30.41,East,94,0.0,0.0,93,0.00,,,0.00,Wunderground v.1.15,2013-03-10 08:40:00,
2013-03-10 04:50:00,19.5,17.8,30.42,East,94,0.0,0.0,93,0.00,,,0.00,Wunderground v.1.15,2013-03-10 08:50:00,
2013-03-10 05:00:00,19.8,18.1,30.42,East,94,0.0,0.0,93,0.00,,,0.00,Wunderground v.1.15,2013-03-10 09:00:00,
2013-03-10 05:10:00,20.2,18.5,30.41,East,94,0.0,0.0,93,0.00,,,0.00,Wunderground v.1.15,2013-03-10 09:10:00,
2013-03-10 05:20:00,20.4,18.7,30.42,East,94,0.0,0.0,93,0.00,,,0.00,Wunderground v.1.15,2013-03-10 09:20:00,
2013-03-10 05:30:00,20.8,19.1,30.41,East,94,0.0,0.0,93,0.00,,,0.00,Wunderground v.1.15,2013-03-10 09:30:00,
2013-03-10 05:40:00,21.2,19.5,30.41,East,94,0.0,0.0,93,0.00,,,0.00,Wunderground v.1.15,2013-03-10 09:40:00,
2013-03-10 05:50:00,21.3,19.6,30.41,East,94,0.0,0.0,93,0.00,,,0.00,Wunderground v.1.15,2013-03-10 09:50:00,
2013-03-10 06:00:00,21.6,19.9,30.41,East,94,0.0,0.0,93,0.00,,,0.00,Wunderground v.1.15,2013-03-10 10:00:00,
2013-03-10 06:10:00,21.6,19.9,30.41,East,94,0.0,0.0,93,0.00,,,0.00,Wunderground v.1.15,2013-03-10 10:10:00,
2013-03-10 06:20:00,21.6,19.9,30.41,East,94,0.0,0.0,93,0.00,,,0.00,Wunderground v.1.15,2013-03-10 10:20:00,
2013-03-10 06:30:00,21.8,20.1,30.42,East,94,0.0,0.0,93,0.00,,,0.00,Wunderground v.1.15,2013-03-10 10:30:00,
2013-03-10 06:40:00,22.0,20.3,30.42,East,94,0.0,0.0,93,0.00,,,0.00,Wunderground v.1.15,2013-03-10 10:40:00,
2013-03-10 06:50:00,22.1,20.4,30.43,East,94,0.0,0.0,93,0.00,,,0.00,Wunderground v.1.15,2013-03-10 10:50:00,
2013-03-10 07:00:00,22.3,20.6,30.43,East,94,0.0,0.0,93,0.00,,,0.00,Wunderground v.1.15,2013-03-10 11:00:00,
2013-03-10 07:10:00,22.4,20.7,30.43,East,94,0.0,0.0,93,0.00,,,0.00,Wunderground v.1.15,2013-03-10 11:10:00,
2013-03-10 07:20:00,22.5,20.8,30.42,East,94,0.0,0.0,93,0.00,,,0.00,Wunderground v.1.15,2013-03-10 11:20:00,
2013-03-10 07:30:00,22.6,20.9,30.42,East,94,0.0,0.0,93,0.00,,,0.00,Wunderground v.1.15,2013-03-10 11:30:00,
2013-03-10 07:40:00,22.7,21.0,30.42,East,94,0.0,0.0,93,0.00,,,0.00,Wunderground v.1.15,2013-03-10 11:40:00,
2013-03-10 07:50:00,22.8,21.1,30.41,East,94,0.0,0.0,93,0.00,,,0.00,Wunderground v.1.15,2013-03-10 11:50:00,
2013-03-10 08:00:00,22.9,21.2,30.42,East,94,0.0,0.0,93,0.00,,,0.00,Wunderground v.1.15,2013-03-10 12:00:00,
2013-03-10 08:10:00,23.1,21.4,30.42,East,94,0.0,0.0,93,0.00,,,0.00,Wunderground v.1.15,2013-03-10 12:10:00,
2013-03-10 08:20:00,22.9,20.9,30.42,SSW,199,0.0,0.0,92,0.00,,,0.00,Wunderground v.1.15,2013-03-10 12:20:00,
2013-03-10 08:30:00,22.9,20.9,30.43,SSW,199,0.0,0.0,92,0.00,,,0.00,Wunderground v.1.15,2013-03-10 12:30:00,
2013-03-10 08:40:00,22.8,21.1,30.43,SSW,198,0.0,0.0,93,0.00,,,0.00,Wunderground v.1.15,2013-03-10 12:40:00,
2013-03-10 08:50:00,23.0,21.3,30.44,SSW,198,0.0,0.0,93,0.00,,,0.00,Wunderground v.1.15,2013-03-10 12:50:00,
2013-03-10 09:00:00,23.2,21.5,30.43,SSW,198,0.0,0.0,93,0.00,,,0.00,Wunderground v.1.15,2013-03-10 13:00:00,
2013-03-10 09:10:00,23.7,22.0,30.42,SSW,198,0.0,0.0,93,0.00,,,0.00,Wunderground v.1.15,2013-03-10 13:10:00,
2013-03-10 09:20:00,24.0,22.0,30.43,SSE,165,0.0,0.0,92,0.00,,,0.00,Wunderground v.1.15,2013-03-10 13:20:00,
2013-03-10 09:30:00,24.2,22.2,30.42,SSE,165,0.0,0.0,92,0.00,,,0.00,Wunderground v.1.15,2013-03-10 13:30:00,
2013-03-10 09:40:00,24.5,22.5,30.42,SSE,165,0.0,0.0,92,0.00,,,0.00,Wunderground v.1.15,2013-03-10 13:40:00,
2013-03-10 09:50:00,24.9,22.6,30.41,SSE,164,0.0,0.0,91,0.00,,,0.00,Wunderground v.1.15,2013-03-10 13:50:00,
2013-03-10 10:00:00,24.9,22.1,30.42,South,175,1.0,1.0,89,0.00,,,0.00,Wunderground v.1.15,2013-03-10 14:00:00,
2013-03-10 10:10:00,25.1,22.3,30.41,ESE,113,0.0,0.0,89,0.00,,,0.00,Wunderground v.1.15,2013-03-10 14:10:00,
2013-03-10 10:20:00,25.8,22.7,30.41,SSE,159,0.0,0.0,88,0.00,,,0.00,Wunderground v.1.15,2013-03-10 14:20:00,
2013-03-10 10:30:00,26.2,22.6,30.41,SSE,156,1.0,2.0,86,0.00,,,0.00,Wunderground v.1.15,2013-03-10 14:30:00,
2013-03-10 10:40:00,26.1,22.5,30.41,SSW,211,1.0,1.0,86,0.00,,,0.00,Wunderground v.1.15,2013-03-10 14:40:00,
2013-03-10 10:50:00,26.4,22.8,30.41,South,184,0.0,0.0,86,0.00,,,0.00,Wunderground v.1.15,2013-03-10 14:50:00,
2013-03-10 11:00:00,26.9,22.7,30.41,SSE,155,1.0,1.0,84,0.00,,,0.00,Wunderground v.1.15,2013-03-10 15:00:00,
2013-03-10 11:10:00,27.3,23.4,30.40,ESE,121,1.0,1.0,85,0.00,,,0.00,Wunderground v.1.15,2013-03-10 15:10:00,
2013-03-10 11:20:00,27.5,23.0,30.40,South,186,0.0,0.0,83,0.00,,,0.00,Wunderground v.1.15,2013-03-10 15:20:00,
2013-03-10 11:30:00,27.6,23.1,30.40,SSE,155,0.0,2.0,83,0.00,,,0.00,Wunderground v.1.15,2013-03-10 15:30:00,
2013-03-10 11:40:00,28.0,23.5,30.40,SSE,150,0.0,0.0,83,0.00,,,0.00,Wunderground v.1.15,2013-03-10 15:40:00,
2013-03-10 11:50:00,28.5,23.4,30.39,South,176,1.0,1.0,81,0.00,,,0.00,Wunderground v.1.15,2013-03-10 15:50:00,
2013-03-10 12:00:00,29.6,24.2,30.38,ESE,103,0.0,2.0,80,0.00,,,0.00,Wunderground v.1.15,2013-03-10 16:00:00,
2013-03-10 12:10:00,30.2,23.9,30.38,ESE,121,1.0,1.0,77,0.00,,,0.00,Wunderground v.1.15,2013-03-10 16:10:00,
2013-03-10 12:20:00,31.1,24.7,30.38,East,86,0.0,0.0,77,0.00,,,0.00,Wunderground v.1.15,2013-03-10 16:20:00,
2013-03-10 12:30:00,31.2,23.9,30.38,SSW,198,1.0,1.0,74,0.00,,,0.00,Wunderground v.1.15,2013-03-10 16:30:00,
2013-03-10 12:40:00,31.1,24.1,30.38,ESE,105,1.0,1.0,75,0.00,,,0.00,Wunderground v.1.15,2013-03-10 16:40:00,
2013-03-10 12:50:00,30.8,23.8,30.38,ESE,103,0.0,0.0,75,0.00,,,0.00,Wunderground v.1.15,2013-03-10 16:50:00,
2013-03-10 13:00:00,31.2,24.5,30.37,East,79,0.0,0.0,76,0.00,,,0.00,Wunderground v.1.15,2013-03-10 17:00:00,
2013-03-10 13:10:00,31.2,24.2,30.36,East,79,0.0,1.0,75,0.00,,,0.00,Wunderground v.1.15,2013-03-10 17:10:00,
2013-03-10 13:20:00,31.0,24.3,30.35,East,80,0.0,0.0,76,0.00,,,0.00,Wunderground v.1.15,2013-03-10 17:20:00,
2013-03-10 13:30:00,31.6,24.6,30.35,ENE,62,0.0,0.0,75,0.00,,,0.00,Wunderground v.1.15,2013-03-10 17:30:00,
2013-03-10 13:40:00,31.7,24.4,30.34,East,88,1.0,1.0,74,0.00,,,0.00,Wunderground v.1.15,2013-03-10 17:40:00,
2013-03-10 13:50:00,32.3,24.9,30.34,East,82,0.0,2.0,74,0.00,,,0.00,Wunderground v.1.15,2013-03-10 17:50:00,
2013-03-10 14:00:00,32.8,25.1,30.34,ENE,78,0.0,0.0,73,0.00,,,0.00,Wunderground v.1.15,2013-03-10 18:00:00,
2013-03-10 14:10:00,33.5,25.4,30.33,ENE,70,0.0,0.0,72,0.00,,,0.00,Wunderground v.1.15,2013-03-10 18:10:00,
2013-03-10 14:20:00,34.3,25.9,30.33,ENE,70,0.0,0.0,71,0.00,,,0.00,Wunderground v.1.15,2013-03-10 18:20:00,
2013-03-10 14:30:00,35.0,25.5,30.32,ENE,70,0.0,0.0,68,0.00,,,0.00,Wunderground v.1.15,2013-03-10 18:30:00,
2013-03-10 14:40:00,35.4,26.2,30.32,ENE,70,0.0,0.0,69,0.00,,,0.00,Wunderground v.1.15,2013-03-10 18:40:00,
2013-03-10 14:50:00,35.4,26.2,30.31,ENE,69,0.0,0.0,69,0.00,,,0.00,Wunderground v.1.15,2013-03-10 18:50:00,
2013-03-10 15:00:00,36.2,27.4,30.31,ENE,69,0.0,0.0,70,0.00,,,0.00,Wunderground v.1.15,2013-03-10 19:00:00,
2013-03-10 15:10:00,36.4,26.5,30.31,ENE,69,0.0,0.0,67,0.00,,,0.00,Wunderground v.1.15,2013-03-10 19:10:00,
2013-03-10 15:20:00,36.1,26.9,30.30,East,82,0.0,0.0,69,0.00,,,0.00,Wunderground v.1.15,2013-03-10 19:20:00,
2013-03-10 15:30:00,36.5,27.3,30.30,East,82,0.0,0.0,69,0.00,,,0.00,Wunderground v.1.15,2013-03-10 19:30:00,
2013-03-10 15:40:00,36.5,26.6,30.30,East,82,0.0,0.0,67,0.00,,,0.00,Wunderground v.1.15,2013-03-10 19:40:00,
2013-03-10 15:50:00,36.4,26.5,30.29,East,82,0.0,0.0,67,0.00,,,0.00,Wunderground v.1.15,2013-03-10 19:50:00,
2013-03-10 16:00:00,36.2,27.4,30.29,East,82,0.0,0.0,70,0.00,,,0.00,Wunderground v.1.15,2013-03-10 20:00:00,
2013-03-10 16:10:00,36.3,27.4,30.30,East,82,0.0,0.0,70,0.00,,,0.00,Wunderground v.1.15,2013-03-10 20:10:00,
2013-03-10 16:20:00,35.9,27.1,30.28,SSE,153,0.0,0.0,70,0.00,,,0.00,Wunderground v.1.15,2013-03-10 20:20:00,
2013-03-10 16:30:00,35.7,27.2,30.28,SSE,155,0.0,0.0,71,0.00,,,0.00,Wunderground v.1.15,2013-03-10 20:30:00,
2013-03-10 16:40:00,35.5,26.7,30.28,South,188,0.0,0.0,70,0.00,,,0.00,Wunderground v.1.15,2013-03-10 20:40:00,
2013-03-10 16:50:00,35.2,27.1,30.28,South,190,0.0,0.0,72,0.00,,,0.00,Wunderground v.1.15,2013-03-10 20:50:00,
2013-03-10 17:00:00,35.2,27.1,30.28,South,190,0.0,0.0,72,0.00,,,0.00,Wunderground v.1.15,2013-03-10 21:00:00,
2013-03-10 17:10:00,35.0,26.9,30.27,South,177,0.0,0.0,72,0.00,,,0.00,Wunderground v.1.15,2013-03-10 21:10:00,
2013-03-10 17:20:00,34.7,26.6,30.27,SSE,157,0.0,0.0,72,0.00,,,0.00,Wunderground v.1.15,2013-03-10 21:20:00,
2013-03-10 17:30:00,34.4,26.6,30.26,SSE,157,0.0,0.0,73,0.00,,,0.00,Wunderground v.1.15,2013-03-10 21:30:00,
2013-03-10 17:40:00,34.2,27.1,30.26,SSW,213,0.0,0.0,75,0.00,,,0.00,Wunderground v.1.15,2013-03-10 21:40:00,
2013-03-10 17:50:00,33.8,26.4,30.27,SSW,212,0.0,0.0,74,0.00,,,0.00,Wunderground v.1.15,2013-03-10 21:50:00,
2013-03-10 18:00:00,33.5,26.1,30.27,ENE,78,0.0,0.0,74,0.00,,,0.00,Wunderground v.1.15,2013-03-10 22:00:00,
2013-03-10 18:10:00,33.3,26.2,30.26,South,173,0.0,0.0,75,0.00,,,0.00,Wunderground v.1.15,2013-03-10 22:10:00,
2013-03-10 18:20:00,33.0,25.6,30.26,SSE,167,0.0,0.0,74,0.00,,,0.00,Wunderground v.1.15,2013-03-10 22:20:00,
2013-03-10 18:30:00,32.9,26.2,30.26,SSE,161,0.0,0.0,76,0.00,,,0.00,Wunderground v.1.15,2013-03-10 22:30:00,
2013-03-10 18:40:00,32.6,26.2,30.26,SSE,160,0.0,0.0,77,0.00,,,0.00,Wunderground v.1.15,2013-03-10 22:40:00,
2013-03-10 18:50:00,32.6,26.2,30.25,SSE,161,0.0,0.0,77,0.00,,,0.00,Wunderground v.1.15,2013-03-10 22:50:00,
2013-03-10 19:00:00,32.5,25.8,30.25,South,177,0.0,0.0,76,0.00,,,0.00,Wunderground v.1.15,2013-03-10 23:00:00,
2013-03-10 19:10:00,32.5,25.8,30.24,South,174,0.0,0.0,76,0.00,,,0.00,Wunderground v.1.15,2013-03-10 23:10:00,
2013-03-10 19:20:00,32.6,25.9,30.24,SSE,147,0.0,0.0,76,0.00,,,0.00,Wunderground v.1.15,2013-03-10 23:20:00,
2013-03-10 19:30:00,32.6,25.6,30.23,SE,142,0.0,0.0,75,0.00,,,0.00,Wunderground v.1.15,2013-03-10 23:30:00,
2013-03-10 19:40:00,32.6,25.6,30.24,South,183,0.0,3.0,75,0.00,,,0.00,Wunderground v.1.15,2013-03-10 23:40:00,
2013-03-10 19:50:00,32.6,25.2,30.23,SE,133,0.0,0.0,74,0.00,,,0.00,Wunderground v.1.15,2013-03-10 23:50:00,
2013-03-10 20:00:00,32.7,25.6,30.22,East,99,0.0,0.0,75,0.00,,,0.00,Wunderground v.1.15,2013-03-11 00:00:00,
2013-03-10 20:10:00,32.8,25.7,30.20,SE,134,0.0,2.0,75,0.00,,,0.00,Wunderground v.1.15,2013-03-11 00:10:00,
2013-03-10 20:20:00,33.0,25.9,30.21,ESE,107,0.0,0.0,75,0.00,,,0.00,Wunderground v.1.15,2013-03-11 00:20:00,
2013-03-10 20:30:00,33.1,26.0,30.22,East,96,0.0,0.0,75,0.00,,,0.00,Wunderground v.1.15,2013-03-11 00:30:00,
2013-03-10 20:40:00,33.2,25.8,30.22,SE,142,0.0,0.0,74,0.00,,,0.00,Wunderground v.1.15,2013-03-11 00:40:00,
2013-03-10 20:50:00,33.2,25.8,30.21,North,5,0.0,0.0,74,0.00,,,0.00,Wunderground v.1.15,2013-03-11 00:50:00,
2013-03-10 21:00:00,33.1,25.7,30.20,ESE,109,1.0,1.0,74,0.00,,,0.00,Wunderground v.1.15,2013-03-11 01:00:00,
2013-03-10 21:10:00,33.0,25.9,30.20,East,79,0.0,0.0,75,0.00,,,0.00,Wunderground v.1.15,2013-03-11 01:10:00,
2013-03-10 21:20:00,33.0,25.9,30.21,ESE,116,0.0,0.0,75,0.00,,,0.00,Wunderground v.1.15,2013-03-11 01:20:00,
2013-03-10 21:30:00,33.1,25.7,30.22,ESE,110,0.0,0.0,74,0.00,,,0.00,Wunderground v.1.15,2013-03-11 01:30:00,
2013-03-10 21:40:00,33.2,26.5,30.21,SE,138,0.0,0.0,76,0.00,,,0.00,Wunderground v.1.15,2013-03-11 01:40:00,
2013-03-10 21:50:00,33.2,26.1,30.22,SE,138,0.0,0.0,75,0.00,,,0.00,Wunderground v.1.15,2013-03-11 01:50:00,
2013-03-10 22:00:00,33.3,26.2,30.22,NE,56,0.0,0.0,75,0.00,,,0.00,Wunderground v.1.15,2013-03-11 02:00:00,
2013-03-10 22:10:00,33.5,26.1,30.21,SE,126,0.0,0.0,74,0.00,,,0.00,Wunderground v.1.15,2013-03-11 02:10:00,
2013-03-10 22:20:00,33.6,25.9,30.22,ESE,123,0.0,0.0,73,0.00,,,0.00,Wunderground v.1.15,2013-03-11 02:20:00,
2013-03-10 22:30:00,33.7,26.3,30.21,SE,138,0.0,0.0,74,0.00,,,0.00,Wunderground v.1.15,2013-03-11 02:30:00,
2013-03-10 22:40:00,33.6,26.2,30.22,ESE,114,0.0,0.0,74,0.00,,,0.00,Wunderground v.1.15,2013-03-11 02:40:00,
2013-03-10 22:50:00,33.5,26.4,30.20,SSE,151,0.0,1.0,75,0.00,,,0.00,Wunderground v.1.15,2013-03-11 02:50:00,
2013-03-10 23:00:00,33.6,26.8,30.20,ENE,65,0.0,0.0,76,0.00,,,0.00,Wunderground v.1.15,2013-03-11 03:00:00,
2013-03-10 23:10:00,33.5,26.4,30.19,ESE,113,0.0,0.0,75,0.00,,,0.00,Wunderground v.1.15,2013-03-11 03:10:00,
2013-03-10 23:20:00,33.5,26.4,30.18,ESE,121,0.0,0.0,75,0.00,,,0.00,Wunderground v.1.15,2013-03-11 03:20:00,
2013-03-10 23:30:00,33.5,26.4,30.18,ESE,121,0.0,0.0,75,0.00,,,0.00,Wunderground v.1.15,2013-03-11 03:30:00,
2013-03-10 23:40:00,33.6,26.5,30.19,WNW,286,0.0,0.0,75,0.00,,,0.00,Wunderground v.1.15,2013-03-11 03:40:00,
2013-03-10 23:50:00,33.7,26.3,30.18,WNW,284,0.0,0.0,74,0.00,,,0.00,Wunderground v.1.15,2013-03-11 03:50:00,